Total_Precipitation_Accumulation
0.00 0.00 0.00 0.00 0.00 0.00 0.00 0.00 0.00 0.00 0.00 0.00 0.00 0.00 0.00 0.00 0.00 0.00 0.00 0.00 0.10 0.10 0.01 0.02 0.08 0.22 0.27 0.30 0.64 0.94 0.93 0.88 1.24 1.95 1.92 1.48 1.45 1.80 2.03 2.47 2.47 2.61 2.24
0.00 0.00 0.00 0.00 0.00 0.00 0.00 0.00 0.00 0.00 0.00 0.00 0.00 0.00 0.00 0.00 0.00 0.00 0.00 0.00 0.00 0.03 0.02 0.01 0.02 0.05 0.19 0.33 0.32 0.64 0.75 0.69 0.90 1.22 1.30 1.27 0.89 0.62 0.51 0.55 0.54 0.40 0.32
0.00 0.00 0.00 0.00 0.00 0.00 0.00 0.00 0.00 0.00 0.00 0.00 0.00 0.00 0.00 0.00 0.00 0.00 0.00 0.00 0.00 0.00 0.03 0.05 0.06 0.09 0.32 0.57 0.96 1.12 1.20 0.96 0.90 1.02 1.15 0.96 0.76 0.70 0.63 0.59 0.45 0.38 0.28
0.01 0.00 0.00 0.00 0.01 0.01 0.00 0.00 0.00 0.00 0.00 0.00 0.00 0.00 0.00 0.00 0.00 0.00 0.00 0.00 0.00 0.01 0.02 0.04 0.11 0.08 0.20 0.28 0.43 0.69 0.90 1.11 1.18 1.31 1.43 1.25 1.02 0.74 0.51 0.49 0.52 0.37 0.20
0.08 0.05 0.03 0.02 0.02 0.01 0.01 0.01 0.02 0.03 0.04 0.04 0.02 0.01 0.01 0.00 0.00 0.00 0.00 0.00 0.00 0.02 0.06 0.10 0.11 0.10 0.15 0.11 0.10 0.12 0.14 0.14 0.25 0.24 0.24 0.39 0.36 0.28 0.25 0.15 0.07 0.10 0.07
0.08 0.09 0.10 0.07 0.05 0.02 0.01 0.00 0.01 0.01 0.02 0.04 0.05 0.04 0.03 0.02 0.01 0.00 0.00 0.00 0.00 0.00 0.06 0.16 0.17 0.19 0.18 0.14 0.11 0.13 0.18 0.14 0.10 0.10 0.09 0.07 0.07 0.05 0.07 0.08 0.04 0.03 0.02
0.20 0.13 0.09 0.07 0.08 0.09 0.09 0.07 0.05 0.03 0.01 0.00 0.01 0.02 0.03 0.04 0.04 0.03 0.01 0.01 0.01 0.00 0.03 0.23 0.27 0.23 0.29 0.28 0.25 0.27 0.43 0.57 0.36 0.26 0.21 0.15 0.09 0.08 0.10 0.09 0.05 0.02 0.00
0.44 0.30 0.18 0.11 0.07 0.06 0.05 0.04 0.05 0.06 0.04 0.03 0.02 0.01 0.01 0.01 0.01 0.01 0.01 0.02 0.02 0.01 0.04 0.33 0.43 0.34 0.27 0.23 0.29 0.33 0.45 0.73 0.75 0.33 0.23 0.17 0.14 0.15 0.14 0.13 0.16 0.08 0.02
0.43 0.38 0.30 0.17 0.09 0.06 0.03 0.02 0.01 0.00 0.00 0.00 0.00 0.00 0.00 0.00 0.01 0.02 0.02 0.02 0.02 0.01 0.02 0.09 0.18 0.19 0.16 0.13 0.22 0.31 0.29 0.34 0.54 0.45 0.21 0.22 0.22 0.23 0.20 0.17 0.18 0.17 0.08
0.41 0.28 0.18 0.13 0.08 0.05 0.03 0.01 0.00 0.00 0.00 0.00 0.00 0.00 0.00 0.00 0.01 0.01 0.03 0.03 0.02 0.01 0.03 0.04 0.19 0.23 0.21 0.15 0.11 0.14 0.20 0.21 0.37 0.57 0.48 0.30 0.20 0.25 0.35 0.34 0.37 0.31 0.19
0.11 0.12 0.10 0.09 0.08 0.06 0.04 0.03 0.02 0.02 0.01 0.00 0.00 0.00 0.00 0.00 0.00 0.01 0.02 0.04 0.06 0.06 0.07 0.09 0.26 0.19 0.25 0.21 0.18 0.15 0.20 0.24 0.33 0.53 0.38 0.25 0.30 0.31 0.41 0.50 0.49 0.44 0.42
0.04 0.03 0.02 0.01 0.01 0.01 0.01 0.01 0.00 0.00 0.00 0.00 0.00 0.00 0.00 0.00 0.00 0.00 0.01 0.01 0.03 0.03 0.08 0.15 0.33 0.30 0.28 0.25 0.22 0.21 0.17 0.21 0.32 0.47 0.59 0.41 0.41 0.43 0.46 0.49 0.45 0.39 0.42
0.00 0.00 0.00 0.00 0.00 0.00 0.00 0.01 0.01 0.01 0.00 0.00 0.00 0.00 0.00 0.00 0.00 0.00 0.00 0.00 0.00 0.01 0.07 0.12 0.22 0.40 0.37 0.32 0.24 0.25 0.35 0.35 0.38 0.37 0.41 0.58 0.53 0.50 0.58 0.58 0.41 0.34 0.33
0.00 0.00 0.00 0.00 0.00 0.00 0.00 0.00 0.00 0.00 0.00 0.00 0.00 0.00 0.00 0.00 0.00 0.00 0.00 0.00 0.00 0.01 0.06 0.14 0.20 0.47 0.64 0.70 0.56 0.53 0.35 0.33 0.40 0.38 0.38 0.52 0.59 0.39 0.35 0.38 0.45 0.47 0.37
0.00 0.00 0.00 0.00 0.00 0.00 0.00 0.00 0.00 0.00 0.00 0.00 0.00 0.00 0.00 0.00 0.00 0.00 0.00 0.00 0.00 0.00 0.01 0.05 0.11 0.35 0.81 0.51 0.40 0.31 0.48 0.44 0.39 0.48 0.52 0.41 0.56 0.52 0.37 0.37 0.26 0.28 0.38
0.00 0.00 0.00 0.00 0.01 0.01 0.01 0.01 0.01 0.01 0.00 0.00 0.01 0.00 0.00 0.00 0.00 0.00 0.00 0.00 0.01 0.03 0.10 0.10 0.13 0.12 0.41 0.62 0.39 0.41 0.34 0.52 0.58 0.40 0.37 0.64 0.79 0.41 0.31 0.35 0.40 0.42 0.39
0.01 0.01 0.02 0.02 0.03 0.04 0.04 0.04 0.04 0.01 0.00 0.01 0.01 0.01 0.01 0.01 0.02 0.02 0.02 0.03 0.02 0.02 0.05 0.11 0.19 0.24 0.24 0.53 0.38 0.55 0.71 0.58 0.44 0.53 0.53 0.36 0.59 0.71 0.55 0.42 0.44 0.54 0.55
0.01 0.02 0.03 0.04 0.04 0.06 0.06 0.06 0.05 0.03 0.01 0.02 0.01 0.02 0.03 0.04 0.04 0.03 0.04 0.07 0.07 0.08 0.10 0.16 0.16 0.17 0.31 0.32 0.62 0.65 0.74 0.70 0.51 0.48 0.54 0.56 0.52 0.66 0.57 0.45 0.41 0.42 0.53
0.03 0.04 0.06 0.06 0.08 0.09 0.08 0.09 0.09 0.08 0.01 0.02 0.03 0.04 0.04 0.05 0.06 0.06 0.07 0.08 0.07 0.07 0.11 0.11 0.10 0.15 0.26 0.46 0.52 0.63 0.67 0.88 0.76 0.57 0.56 0.48 0.52 0.63 0.76 0.67 0.73 0.58 0.47
0.04 0.07 0.07 0.08 0.09 0.14 0.12 0.12 0.11 0.06 0.04 0.01 0.01 0.02 0.02 0.03 0.04 0.06 0.08 0.08 0.08 0.10 0.07 0.05 0.09 0.13 0.20 0.34 0.46 0.62 0.63 0.59 0.75 0.68 0.61 0.74 0.72 0.66 0.63 0.63 0.65 0.81 0.75
0.08 0.08 0.10 0.15 0.17 0.11 0.08 0.07 0.03 0.01 0.00 0.00 0.00 0.00 0.00 0.00 0.00 0.01 0.01 0.03 0.04 0.03 0.03 0.03 0.05 0.08 0.15 0.25 0.40 0.49 0.60 0.74 0.60 0.60 0.68 0.70 0.73 0.78 0.82 0.77 0.74 0.86 0.87
0.08 0.08 0.11 0.13 0.07 0.03 0.01 0.00 0.00 0.00 0.00 0.00 0.00 0.00 0.00 0.00 0.00 0.00 0.00 0.00 0.00 0.00 0.01 0.01 0.02 0.05 0.08 0.13 0.22 0.38 0.54 0.63 0.64 0.70 0.64 0.65 0.61 0.58 0.64 0.71 0.78 0.68 0.61
0.08 0.06 0.04 0.02 0.00 0.00 0.00 0.00 0.00 0.00 0.00 0.00 0.00 0.00 0.00 0.00 0.00 0.00 0.00 0.00 0.00 0.00 0.00 0.00 0.01 0.02 0.03 0.06 0.10 0.16 0.24 0.32 0.41 0.52 0.62 0.62 0.53 0.49 0.52 0.56 0.56 0.53 0.49
0.01 0.00 0.00 0.00 0.00 0.00 0.00 0.00 0.00 0.00 0.00 0.00 0.00 0.00 0.00 0.00 0.00 0.00 0.00 0.00 0.00 0.00 0.01 0.01 0.01 0.01 0.00 0.01 0.03 0.06 0.10 0.14 0.17 0.21 0.25 0.28 0.33 0.40 0.46 0.47 0.45 0.45 0.50
0.00 0.00 0.00 0.00 0.00 0.00 0.00 0.00 0.00 0.00 0.00 0.00 0.00 0.00 0.00 0.00 0.00 0.01 0.02 0.01 0.00 0.00 0.01 0.03 0.02 0.01 0.02 0.02 0.00 0.00 0.01 0.03 0.06 0.09 0.10 0.12 0.15 0.17 0.21 0.26 0.32 0.38 0.41
0.00 0.00 0.00 0.00 0.00 0.00 0.00 0.00 0.00 0.00 0.00 0.00 0.00 0.00 0.00 0.00 0.00 0.00 0.00 0.01 0.00 0.00 0.00 0.01 0.01 0.01 0.00 0.00 0.00 0.00 0.00 0.00 0.00 0.00 0.01 0.03 0.05 0.08 0.11 0.13 0.16 0.17 0.21